sat.trackr.live / text

‹ back to catalog

STARLINK-36204

NORAD 68549 · 2026-070H

PAYLOAD ACTIVE UNKNOWN

§ Identity

Operator
Country
US
Launch date
2026-04-02
Launch site
AFETR
Launch vehicle
Mass (kg)
RCS (m²)

Purposes: comms

External: N2YO · Heavens-Above · Gunter

§ Orbital elements

Epoch: 2026-05-25T00:00:02.000160Z

Period
93.85 min
Inclination
53.1603°
Eccentricity
0.0001254
Mean motion
15.34370122 rev/d
Perigee alt
461.9 km
Apogee alt
463.6 km
Semi-major
6,840.9 km
B*
1.1860e-3
RAAN
7.7764°
Arg perigee
84.9802°
Mean anomaly
261.8456°
Rev number
599

§ Raw data

STARLINK-362041 68549U 26070H   26145.00002315  .00039871  00000+0  11860-2 0  99912 68549  53.1603   7.7764 0001254  84.9802 261.8456 15.34370122  5999

JSON: /api/v1/satellites/68549 · /tle

For live sub-satellite position, see the globe view (requires WebGL).

§ Visibility from observer

Set your observer location to see the next 7 days of passes ≥ 10°. The values pass through the URL so the page stays shareable.

No JS? Fill the form by hand. The geolocation button needs JavaScript.